Погода в Выборге

Хотите узнать прогноз погоды в Выборге? Тогда Вам сюда: Погода в Выборге

Поиск расширенной информации на нашем сайте:

Полезная информация:

Новости сайта



02.01.2020
Опубликован Долгосрочный прогноз погоды по городам России и ближнего зарубежья на январь 2020 года.
Карты: Прогноз на январь и февраль 2020 года, Сравнение прогнозируемой аномалии приземной температуры воздуха на январь 2020 года по разным моделям.




Погода в Выборге - сегодня

Время (UTC), дата Ветер
(°,м/с) 
Видим.   Явления Облачность Т
(°С)
Тd
(°С)
f(%) Тe
(°С)
Pmin
(гПа)
dP
(гПа)
Po
(мм)
O2
(г/м3)
Тmin Tmax R s Состояние
почвы
06 04.06.20 050 (СВ) 10 км    10/6 600 м кучево-дожд., средняя 
[Cb cap|As op]
+12.3 +7 70 +13  1008.8  -1.3  755  290  +5.7         
09 04.06.20 050 (СВ) 20000 м    10/8 600 м кучево-дожд., средняя 
[Cb cap|As op]
+15.6 +5.4 51 +16  1006.6  -2.1  754  286           
12 04.06.20 090 (В) 5{10}  20000 м  слаб. ливневой дождь  10/8 840 м кучево-дожд., средняя 
[Cb cap|As op]
+12 +4 58 +11  1005  -1.6  753  290           
15 04.06.20 020 (С) 4{10}  10 км  слаб. ливневой дождь  10/8 600 м кучево-дожд., средняя 
[Cb cap|As op]
+8.5 +6.5 87 +7  1002.7  -2.4  751  292      0.9     
18 04.06.20 020 (С) 3{10}  2000 м  слаб. ливневой дождь  10/10 180 м кучево-дожд. 
[Cb cap]
+8.6 +7.8 95 +8  999.7  -3  749  291    +15.8     
21 04.06.20 060 (СВ) 4000 м  слаб. ливневой дождь  10/10 150 м кучево-дожд. 
[Cb cap]
+8.8 +7.5 92 +9  998.6  -1.1  748  291           
00 05.06.20 120 (ЮВ) 20000 м  в посл. час ливневой дождь  10/10 300 м кучево-дожд. 
[Cb cap]
+10.1 +9.2 94 +10  998  -0.5  747  289           
03 05.06.20 110 (В) 20000 м    10/10 240 м кучево-дожд. 
[Cb cap]
+9.2 +8.2 93 +9  998.1  747  290  +7.6       
06 05.06.20 150 (ЮВ) 20000 м    10/10 930 м кучево-дожд. 
[Cb cap]
+9.6 +7 84 +8  998.6  0.5  748  290  +7.7      влажная 
09 05.06.20 180 (Ю) 7{11}  20000 м  в посл. час ливневой дождь  10/10 800 м кучево-дожд. 
[Cb cap]
+10.2 +8 86 +8  1000.1  1.5  749  289           
12 05.06.20 200 (Ю) 8-10{12}  20000 м  слаб. ливневой дождь  10/10 360 м кучево-дожд. 
[Cb cap]
+9.6 +8 90 +7  1002.1  750  291           
15 05.06.20 190 (Ю) 7{12}  10 км  слаб. ливневой дождь  10/10 300 м кучево-дожд. 
[Cb cap]
+9.7 +8.6 93 +8  1003.4  1.3  751  291         
18 05.06.20 160 (Ю) 20000 м  {ливн. осадки}  8/6 600 м кучево-дожд., средняя 
[Cb cap|Ac trans]
+10.2 +8.8 91 +9  1004.1  0.7  752  290    +12.2     
21 05.06.20 150 (ЮВ) 20000 м    8/4 600 м кучево-дожд., средняя 
[Cb cap|Ac trans]
+10.3 +7.8 84 +9  1005.1  753  291           
00 06.06.20 130 (ЮВ) 20000 м    8/4 600 м кучево-дожд., средняя 
[Cb cap|Ac trans]
+10.5 +8.5 87 +12  1004.9  -0.2  752  290           
03 06.06.20 130 (ЮВ) 20000 м    3/0 средняя, верхняя 
[Ac trans|Ci fib]
+11.3 +7.4 77 +11  1003.7  -1.2  752  290  +9.3    0.8     
06 06.06.20 140 (ЮВ) 20000 м    9/0 верхняя 
[Cs]
+16.1 +8.3 60 +16  1002.7  -0.9  751  284  +9.3         
09 06.06.20 140 (ЮВ) 7-11{12}  20000 м    10/5 1500 м кучево-дожд., средняя 
[Cb cap|Ac As]
+14.2 +6.2 59 +13  1002.3  -0.4  751  286           
12 06.06.20 150 (ЮВ) 7{13}  10 км  слаб. ливневой дождь  10/10 300 м кучево-дожд. 
[Cb cap]
+11.2 +9.9 92 +11  1002.7  0.4  751  289           
15 06.06.20 160 (Ю) 20000 м  в посл. час ливневой дождь  10/8 300 м кучево-дожд., средняя 
[Cb cap|Ac As]
+12 +10.7 92 +13  1002.8  0.1  751  288         
18 06.06.20 220 (ЮЗ) 5{11}  20000 м  в посл. час ливневой дождь  8/5 600 м кучево-дожд., средняя 
[Cb cap|Ac As]
+11.1 +9.4 89 +10  1005.6  2.7  753  290    +16.1     
21 06.06.20 180 (Ю) 20000 м  {ливн. осадки}  3/0 средняя, верхняя 
[Ac As|Ci fib]
+10.1 +8.5 90 +10  1007.6  755  292           
00 07.06.20 150 (ЮВ) 20000 м    н/о 
+9.2 +7.2 87 +8  1009.5  1.9  756  293           
03 07.06.20 170 (Ю) 20000 м    8/8 600 м кучево-дожд. 
[Cb cap]
+9.7 +7.3 85 +8  1010.9  1.4  757  293  +8.2       
06 07.06.20 220 (ЮЗ) 9-11{12}  20000 м    1/0 средняя 
[Ac As]
+13.2 +7.4 68 +12  1012.8  1.9  758  290  +8.2        мокрая 
Время (UTC), дата Ветер
(°,м/с) 
Видим.   Явления Облачность Т
(°С)
Тd
(°С)
f(%) Тe
(°С)
Pmin
(гПа)
dP
(гПа)
Po
(мм)
O2
(г/м3)
Тmin Tmax R s Состояние
почвы

Для получения пояснительной информации подведите курсор к названию столбца.

ПОГОДА в Выборге - архив

Всё, что Вы хотите узнать о погоде в Выборге - удобно и подробно!

Выберите нужную дату (начиная с 1 января 2019* года) и нажмите кнопку "Найти".
Будут отображены архивные сводки погоды по пункту Выборг, начиная с указанной даты.


Отображать данные в формате CSV (для использования в таблицах Excel)


Внимание! Наш архив погоды предназначен исключительно для личного некоммерческого использования в познавательных целях. Если Вам необходимы официальные справки о состоянии погоды (для производственных, юридических, коммерческих и т.п. целей), обращайтесь в органы Росгидромета.

*Примечание: данная дата относится к архиву по метеостанциям СССР (Россия, СНГ, Балтия).
Архив по метеостанциям Зарубежной Европы и Азии (кроме Китая) хранится 10 дней, по другим регионам земного шара (Китай, Африка, Америка, Австралия, Океания) - 1 день.

Выборг - район местоположения метеостанции


Название, широта, долгота, высота метеостанции:
Выборг 60.7°ш. 28.7°д. 13 м над ур. моря [Российская Федерация]

Дополнительная информация

В oтличие oт бoльшинства пoгoдных сайтoв мы публикуем пoдрoбную метеoинфoрмацию в детальнoм прoфессиoнальнoм фoрмате.

Характеристики температуры и влажнoсти вoздуха измеряются на высoте 2 м в тени вдали oт зданий и деревьев.
Скoрoсть ветра измеряется на высoте 10 м (на урoвне рoста челoвека скoрoсть ветра ниже в 1.5-2 раза). Если метеoстанция нахoдится в гoрoде или в лесу, тo скoрoсть ветра занижена на 2-4 м/с пo сравнению с oткрытым местoм. Скoрoсть ветра над акватoриями крупных рек и oзёр, а также на вершинах хoлмoв на 2-5 м/с выше, чем в oбычных услoвиях.
Атмoсфернoе давление в разных тoчках местнoсти мoжет значительнo oтличаться oт давления на метеoстанции, в зависимoсти oт услoвий рельефа (при пoдъёме на 10 м давление пoнижается примернo на 1 мм рт.ст.).